Home > Weather > Majuro > Past weeks

Flag for Marshall Islands Weather for the Past 2 Weeks in Majuro, Marshall Islands

Now
79 °F

Sprinkles. Overcast.


Feels Like: 83 °F
Forecast: 81 / 85 °F
Wind: 13 mph from Northeast

Location: Majuro Atoll

Current Time: Feb 15, 2016 at 7:16:12 AM

Latest Report: Feb 15, 2016 at 5:52 AM


Visibility: 10 mi

Pressure: 29.78 "Hg

Humidity: 94%

Dew point: 77 °F

Location of MajuroLocation

Historic Weather in Majuro — Graph

°F

Majuro Temperature Yesterday

Maximum temperature yesterday: 82 °F (at 3:52 AM)
Minimum temperature yesterday: 79 °F (at 11:55 AM)
Average temperature yesterday: 81 °F

High & Low Weather Summary for the Past Weeks

 TemperatureHumidityPressure
High88 °F (Feb 13, 1:54 PM)94% (Feb 14, 11:55 AM)29.93 "Hg (Feb 14, 11:55 AM)
Low78 °F (Feb 7, 6:54 PM)60% (Feb 1, 2:50 PM)29.71 "Hg (Feb 9, 2:50 PM)
Average83 °F76%29.81 "Hg
* Reported Jan 31 5:53 AM — Feb 15 5:52 AM, Majuro, Weather by CustomWeather, © 2016

Note: Actual official high and low records may vary slightly from our data, if they occured in-between our weather recording intervals... More about our weather records

Advertising

Majuro Weather History for the Previous 24 Hours

 ConditionsComfort  
Time TempWeatherWind HumidityBarometerVisibility
5:52 AM
Mon, Feb 15
79 °FSprinkles. Overcast.13 mph94%29.78 "Hg10 mi
4:50 AM81 °FOvercast.20 mph87%29.77 "Hg15 mi
3:52 AM80 °FOvercast.16 mph91%29.76 "Hg15 mi
2:50 AM81 °FOvercast.18 mph89%29.78 "Hg15 mi
1:50 AM81 °FOvercast.15 mph89%29.79 "Hg15 mi
12:50 AM81 °FOvercast.17 mph88%29.81 "Hg15 mi
11:52 PM
Sun, Feb 14
82 °FOvercast.20 mph86%29.82 "Hg15 mi
10:51 PM81 °FOvercast.18 mph88%29.82 "Hg15 mi
9:50 PM82 °FOvercast.13 mph86%29.83 "Hg15 mi
8:52 PM82 °FOvercast.14 mph86%29.82 "Hg15 mi
7:50 PM82 °FOvercast.15 mph84%29.80 "Hg15 mi
6:50 PM82 °FCloudy.16 mph85%29.78 "Hg15 mi
5:52 PM81 °FCloudy.16 mph86%29.77 "Hg15 mi
4:50 PM80 °FRain. Cloudy.14 mph92%29.75 "Hg12 mi
3:52 PM81 °FCloudy.13 mph89%29.74 "Hg15 mi
2:54 PM81 °FCloudy.12 mph89%29.74 "Hg15 mi
1:50 PM80 °FSprinkles. Cloudy.14 mph92%29.77 "Hg12 mi
12:51 PM80 °FCloudy.12 mph90%29.78 "Hg15 mi
11:55 AM79 °FCloudy.14 mph94%29.81 "Hg15 mi
10:55 AM81 °FCloudy.14 mph89%29.83 "Hg15 mi
9:53 AM81 °FCloudy.12 mph90%29.83 "Hg15 mi
8:51 AM80 °FSprinkles. Cloudy.12 mph91%29.83 "Hg10 mi
7:56 AM81 °FCloudy.12 mph89%29.82 "Hg15 mi
Weather by CustomWeather, © 2016

See weather overviewHow to use our weather pages